{"data":{"norad_id":54843,"intl_designator":"2022-177Z","name":"STARLINK-5304","alt_names":[],"object_type":"PAYLOAD","status":"ACTIVE","operator":null,"country":"US","launch_date":"2022-12-28","launch_site_code":"AFETR","launch_vehicle":null,"mission":null,"orbit_class":"UNKNOWN","rcs_meters":null,"size_class":null,"mass_kg":null,"dimensions":null,"purposes":["comms"],"wikipedia_slug":null,"has_3d_model":false,"image_url":null,"decayed_at":null,"tle_current":{"epoch":"2026-05-24T22:54:06.717024Z","epoch_age_seconds":75508,"freshness":"FRESH","line1":"1 54843U 22177Z   26144.95424441 -.00000112  00000+0  54575-5 0  9998","line2":"2 54843  43.0068  62.2358 0001143 267.8082  92.2639 15.27586425188626","mean_motion":15.27586425,"eccentricity":0.0001143,"inclination_deg":43.0068,"raan_deg":62.2358,"arg_perigee_deg":267.8082,"mean_anomaly_deg":92.2639,"bstar":5.4575e-6,"rev_number":18862,"period_min":94.266352229466,"perigee_km":482.24562597391,"apogee_km":483.8140887175,"semimajor_km":6861.1668573457,"source":"CELESTRAK","updated_at":"2026-05-25T13:38:17.724117Z"}}}